Fryeburg, ME

3:49 PM EST on February 12, 2016 (GMT -0500)
Eastern Slopes Regional

Weather History for KIZG - January, 2015

Change the Weather History Date:

Sunday, January 18, 2015

  Actual Average (WUND) Record (WUND)
Temperature  
Mean Temperature 22 °F -  
Max Temperature 45 °F - - (-1)
Min Temperature 6 °F - - (-1)
Degree Days  
Heating Degree Days 44    
Moisture  
Dew Point 23 °F    
Average Humidity 86    
Maximum Humidity 96    
Minimum Humidity 49    
Precipitation  
Precipitation 0.87 in - - ()
Sea Level Pressure  
Sea Level Pressure 29.94 in    
Wind  
Wind Speed 1 mph (NNW)    
Max Wind Speed 9 mph    
Max Gust Speed 24 mph    
Visibility 5 miles    
Events Rain , Snow    
Averages and records for this station are not official NWS values.
T = Trace of Precipitation, MM = Missing Value Source: NWS Daily Summary

Daily Weather History Graph

Daily Weather History Graph

Search for Another Location

Airport or City:

Trip Planner

Search our weather history database for the weather conditions in past years. The results will help you decide how hot, cold, wet, or windy it might be!

Date:

Astronomy

Jan. 18, 2015 Rise Set
Actual Time 7:13 AM EST 4:35 PM EST
Civil Twilight 6:41 AM EST 5:06 PM EST
Nautical Twilight 6:06 AM EST 5:42 PM EST
Astronomical Twilight 5:31 AM EST 6:16 PM EST
Moon 5:06 AM EST (1/18) 2:56 PM EST (1/18)
Length of Visible Light 10h 25m
Length of Day
9h 21m
Waning Crescent, 5% of the Moon is Illuminated
Jan 18
Waning Crescent
Jan 20
New
Jan 26
First Quarter
Feb 3
Full
Feb 11
Last Quarter

Hourly Weather History & Observations

Time (EST) Temp. Windchill Dew Point Humidity Pressure Visibility Wind Dir Wind Speed Gust Speed Precip Events Conditions
12:54 AM 6.1 °F - -6.0 °F 58% 30.21 in 10.0 mi Calm Calm - N/A   Clear
1:54 AM 10.9 °F 2.9 °F -5.1 °F 49% 30.22 in 10.0 mi South 4.6 mph - N/A   Scattered Clouds
2:54 AM 7.0 °F - -4.0 °F 61% 30.20 in 10.0 mi Calm Calm - N/A   Clear
3:20 AM 7.0 °F - -4.0 °F 61% 30.17 in 10.0 mi Calm Calm - N/A   Mostly Cloudy
3:54 AM 9.0 °F - -2.0 °F 61% 30.19 in 10.0 mi Calm Calm - N/A   Overcast
4:54 AM 9.0 °F - -0.0 °F 67% 30.18 in 10.0 mi Calm Calm - N/A   Overcast
5:31 AM 10.9 °F - 1.0 °F 64% 30.13 in 10.0 mi Calm Calm - N/A   Overcast
5:54 AM 12.0 °F - 3.0 °F 67% 30.17 in 10.0 mi Calm Calm - N/A   Overcast
6:54 AM 15.1 °F - 6.1 °F 68% 30.15 in 10.0 mi Calm Calm - N/A   Overcast
7:54 AM 17.1 °F - 7.0 °F 65% 30.14 in 10.0 mi Calm Calm - N/A   Overcast
8:54 AM 19.0 °F - 10.0 °F 68% 30.14 in 10.0 mi Calm Calm - N/A   Overcast
9:54 AM 23.0 °F - 14.0 °F 68% 30.13 in 10.0 mi Calm Calm - N/A   Overcast
10:54 AM 25.0 °F 20.7 °F 16.0 °F 69% 30.09 in 10.0 mi ESE 3.5 mph - N/A   Overcast
11:54 AM 26.1 °F 21.9 °F 19.9 °F 78% 30.04 in 2.5 mi WNW 3.5 mph - 0.00 in   Overcast
11:57 AM 26.1 °F - 21.0 °F 81% 30.01 in 2.5 mi Calm Calm - 0.00 in Rain Light Freezing Rain
12:18 PM 26.1 °F - 21.9 °F 84% 29.99 in 3.0 mi Calm Calm - 0.01 in Rain Light Freezing Rain
12:29 PM 25.0 °F 19.3 °F 21.9 °F 88% 29.99 in 2.5 mi NW 4.6 mph - 0.02 in Snow Light Snow
12:54 PM 25.0 °F - 23.0 °F 92% 30.01 in 1.8 mi Calm Calm - 0.04 in Rain Light Freezing Rain
1:02 PM 25.0 °F 20.7 °F 23.0 °F 92% 29.98 in 1.5 mi NW 3.5 mph - 0.00 in Snow Light Snow
1:13 PM 25.0 °F 20.7 °F 23.0 °F 92% 29.98 in 2.0 mi NNW 3.5 mph - 0.02 in   Overcast
1:23 PM 25.0 °F 20.7 °F 23.0 °F 92% 29.98 in 4.0 mi NW 3.5 mph - 0.02 in Rain Light Freezing Rain
1:34 PM 26.1 °F - 23.0 °F 88% 29.97 in 3.0 mi Calm Calm - 0.04 in Rain Light Freezing Rain
1:41 PM 26.1 °F - 23.0 °F 88% 29.97 in 2.0 mi Calm Calm - 0.05 in Rain Light Freezing Rain
1:54 PM 27.0 °F - 24.1 °F 89% 29.99 in 2.0 mi Calm Calm - 0.06 in Rain Light Freezing Rain
2:03 PM 28.0 °F - 25.0 °F 88% 29.96 in 2.5 mi Calm Calm - 0.01 in Rain Light Freezing Rain
2:13 PM 28.0 °F - 26.1 °F 92% 29.96 in 3.0 mi Calm Calm - 0.03 in Rain Light Freezing Rain
2:41 PM 28.9 °F 25.2 °F 26.1 °F 89% 29.96 in 2.5 mi NNW 3.5 mph - 0.05 in Rain Light Freezing Rain
2:52 PM 28.4 °F - 26.6 °F 93% 29.96 in 4.0 mi Calm Calm - 0.07 in Rain Light Freezing Rain
2:54 PM 28.9 °F - 26.1 °F 89% 29.99 in 4.0 mi Calm Calm - 0.07 in Rain Light Freezing Rain
3:05 PM 28.9 °F - 27.0 °F 92% 29.96 in 2.5 mi Calm Calm - 0.01 in Rain Light Freezing Rain
3:09 PM 28.9 °F - 27.0 °F 92% 29.96 in 2.5 mi Calm Calm - 0.02 in Rain Light Freezing Rain
3:17 PM 28.9 °F - 27.0 °F 92% 29.95 in 2.5 mi Calm Calm - 0.03 in Rain Light Freezing Rain
3:25 PM 30.0 °F - 27.0 °F 88% 29.95 in 5.0 mi Calm Calm - 0.04 in Rain Light Freezing Rain
3:34 PM 30.0 °F - 27.0 °F 88% 29.95 in 3.0 mi Calm Calm - 0.06 in Rain Light Freezing Rain
3:42 PM 30.0 °F - 28.0 °F 92% 29.95 in 2.0 mi Calm Calm - 0.08 in Rain Light Freezing Rain
3:49 PM 30.2 °F - 28.4 °F 93% 29.95 in 1.8 mi Calm Calm - 0.10 in Rain Light Freezing Rain
3:54 PM 30.0 °F - 28.0 °F 92% 29.97 in 1.8 mi Calm Calm - 0.11 in Rain Light Freezing Rain
4:00 PM 30.0 °F - 28.0 °F 92% 29.94 in 3.0 mi Calm Calm - 0.01 in Rain Light Freezing Rain
4:10 PM 30.9 °F - 28.9 °F 92% 29.94 in 3.0 mi Calm Calm - 0.03 in Rain Light Freezing Rain
4:12 PM 30.9 °F - 28.9 °F 92% 29.94 in 3.0 mi Calm Calm - 0.03 in Rain Light Freezing Rain
4:54 PM 30.9 °F - 30.0 °F 96% 29.94 in 5.0 mi Calm Calm - 0.08 in Rain Light Freezing Rain
5:05 PM 30.9 °F 27.5 °F 30.0 °F 96% 29.90 in 4.0 mi NNW 3.5 mph - 0.01 in Rain Light Freezing Rain
5:12 PM 30.9 °F 27.5 °F 30.0 °F 96% 29.90 in 3.0 mi North 3.5 mph - 0.02 in Rain Light Freezing Rain
5:19 PM 32.0 °F 28.7 °F 30.0 °F 92% 29.90 in 3.0 mi North 3.5 mph - 0.03 in Rain Light Freezing Rain
5:41 PM 32.0 °F - 30.0 °F 92% 29.88 in 4.0 mi Calm Calm - 0.07 in Rain Light Freezing Rain
5:54 PM 32.0 °F - 30.9 °F 96% 29.90 in 7.0 mi Calm Calm - 0.07 in Rain Light Freezing Rain
6:05 PM 32.0 °F - 30.9 °F 96% 29.88 in 4.0 mi Calm Calm - 0.01 in Rain Light Freezing Rain
6:14 PM 32.0 °F - 30.9 °F 96% 29.87 in 5.0 mi Calm Calm - 0.02 in   Overcast
6:54 PM 33.1 °F - 30.9 °F 92% 29.86 in 7.0 mi Calm Calm - 0.04 in   Overcast
7:10 PM 33.1 °F - 30.9 °F 92% 29.82 in 10.0 mi Calm Calm - 0.01 in Rain Light Rain
7:24 PM 33.1 °F - 30.9 °F 92% 29.81 in 10.0 mi Calm Calm - 0.01 in   Overcast
7:54 PM 33.1 °F - 32.0 °F 96% 29.80 in 5.0 mi Calm Calm - 0.01 in Rain Light Rain
8:03 PM 33.1 °F - 32.0 °F 96% 29.77 in 3.0 mi Calm Calm - 0.00 in Rain Light Rain
8:21 PM 33.1 °F - 32.0 °F 96% 29.76 in 2.0 mi Calm Calm - 0.00 in Rain Light Rain
8:34 PM 33.1 °F - 32.0 °F 96% 29.74 in 1.5 mi Calm Calm - 0.02 in Rain Rain
8:54 PM 33.1 °F - 32.0 °F 96% 29.74 in 2.0 mi Calm Calm - 0.05 in Rain Light Rain
9:05 PM 33.1 °F 30.0 °F 32.0 °F 96% 29.71 in 1.5 mi NW 3.5 mph - 0.02 in Rain Light Rain
9:12 PM 33.1 °F 30.0 °F 32.0 °F 96% 29.70 in 3.0 mi NNW 3.5 mph - 0.02 in Rain Light Rain
9:43 PM 33.1 °F 30.0 °F 32.0 °F 96% 29.67 in 2.5 mi Variable 3.5 mph - 0.07 in Rain Rain
9:46 PM 33.1 °F 28.7 °F 32.0 °F 96% 29.67 in 3.0 mi WNW 4.6 mph - 0.07 in Rain Light Rain
9:54 PM 33.1 °F 30.0 °F 32.0 °F 96% 29.68 in 5.0 mi West 3.5 mph - 0.07 in Rain Light Rain
10:35 PM 33.1 °F 28.7 °F 32.0 °F 96% 29.61 in 3.0 mi Variable 4.6 mph - 0.06 in Rain Rain
10:54 PM 37.0 °F 32.4 °F 36.0 °F 96% 29.61 in 5.0 mi ESE 5.8 mph - 0.10 in Rain Rain
11:54 PM 45.0 °F 40.1 °F 43.0 °F 93% 29.52 in 6.0 mi SE 9.2 mph 24.2 mph 0.17 in Rain Light Rain